Temp
-8 -8 -8 -9 -9 -9 -9 -9 -9 -9 -10 -10 -10 -10 -10 -10 -10 -10 -10 -10 -10 -10 -11 -11 -11 -12 -13 -13 -14 -14 -15 -15 -16 -17 -17 -18 -18 -19 -19 -19 -18 -17 -15 -15 -16 -16 -16 -17 -17 -16 -17 -17 -16 -16 -17 -16 -17 -17 -17 -17 -16 -16 -16
-8 -8 -9 -9 -9 -9 -9 -9 -9 -10 -10 -10 -10 -10 -10 -10 -10 -10 -10 -10 -10 -10 -11 -11 -11 -12 -13 -13 -14 -14 -15 -15 -16 -17 -17 -18 -19 -19 -19 -19 -19 -18 -16 -15 -15 -16 -16 -16 -17 -17 -17 -17 -16 -16 -16 -16 -16 -16 -16 -16 -16 -16 -16
-8 -8 -9 -9 -10 -10 -10 -10 -10 -10 -10 -10 -10 -10 -10 -10 -10 -10 -10 -11 -11 -11 -11 -11 -12 -12 -13 -13 -14 -14 -15 -15 -16 -17 -17 -18 -19 -19 -19 -20 -19 -18 -17 -16 -15 -16 -16 -16 -16 -17 -17 -17 -16 -16 -16 -16 -16 -16 -16 -16 -16 -16 -16
-8 -8 -9 -9 -10 -10 -10 -10 -10 -10 -10 -10 -10 -10 -10 -10 -10 -11 -11 -11 -11 -11 -11 -11 -12 -12 -13 -13 -14 -14 -15 -16 -16 -16 -17 -18 -19 -19 -19 -20 -20 -19 -19 -17 -16 -15 -16 -16 -16 -16 -17 -17 -16 -16 -16 -16 -16 -15 -15 -15 -16 -15 -16
-9 -9 -9 -9 -10 -10 -10 -10 -10 -10 -10 -10 -10 -10 -11 -11 -11 -11 -11 -11 -11 -11 -11 -11 -12 -12 -13 -13 -14 -14 -15 -16 -16 -16 -17 -18 -19 -20 -20 -20 -20 -20 -19 -18 -16 -15 -16 -16 -16 -16 -17 -17 -16 -16 -16 -16 -16 -16 -16 -15 -16 -16 -16
-9 -9 -9 -10 -10 -10 -10 -11 -11 -11 -11 -11 -11 -11 -11 -11 -11 -11 -11 -11 -11 -11 -11 -12 -12 -12 -13 -13 -14 -15 -15 -16 -16 -16 -17 -18 -19 -20 -20 -20 -20 -20 -19 -19 -17 -16 -16 -16 -16 -17 -17 -17 -17 -17 -16 -16 -16 -16 -16 -16 -16 -16 -16
-9 -10 -10 -10 -10 -10 -11 -11 -11 -11 -11 -11 -11 -11 -11 -11 -11 -11 -11 -11 -12 -12 -12 -12 -12 -13 -13 -14 -14 -14 -15 -16 -16 -16 -17 -18 -19 -20 -20 -20 -19 -19 -19 -19 -18 -17 -17 -17 -17 -17 -17 -17 -17 -17 -17 -16 -16 -16 -17 -17 -16 -17 -17
-10 -10 -10 -10 -10 -11 -11 -11 -11 -11 -12 -12 -12 -12 -12 -12 -12 -12 -12 -12 -12 -12 -12 -12 -12 -13 -14 -14 -14 -14 -15 -16 -16 -16 -17 -18 -19 -20 -20 -20 -20 -20 -20 -19 -18 -18 -18 -17 -17 -17 -17 -17 -17 -17 -17 -17 -17 -17 -17 -17 -17 -17 -17
-9 -10 -10 -10 -11 -11 -11 -11 -12 -12 -12 -12 -12 -12 -12 -12 -12 -12 -12 -12 -12 -12 -12 -12 -13 -13 -14 -14 -14 -15 -15 -16 -16 -16 -17 -17 -19 -20 -20 -20 -20 -20 -19 -19 -19 -19 -18 -18 -18 -18 -17 -17 -18 -17 -17 -17 -17 -17 -17 -17 -17 -17 -18
-9 -10 -10 -11 -11 -11 -11 -12 -12 -12 -12 -12 -12 -12 -13 -13 -13 -13 -13 -12 -12 -12 -12 -13 -13 -14 -14 -14 -14 -15 -15 -16 -16 -17 -17 -18 -19 -20 -20 -21 -20 -20 -20 -20 -20 -19 -19 -18 -18 -18 -18 -18 -18 -18 -18 -17 -18 -18 -18 -18 -17 -17 -18
-9 -10 -10 -11 -11 -11 -11 -12 -12 -12 -12 -12 -12 -13 -13 -13 -13 -13 -13 -13 -12 -13 -13 -13 -13 -14 -14 -14 -15 -15 -15 -16 -16 -17 -17 -18 -19 -20 -21 -21 -20 -20 -20 -20 -20 -20 -19 -19 -18 -18 -18 -18 -18 -18 -18 -18 -18 -18 -18 -18 -18 -18 -18
-9 -10 -11 -11 -11 -11 -11 -12 -12 -12 -12 -12 -12 -12 -13 -13 -14 -14 -13 -13 -12 -12 -13 -13 -14 -14 -14 -14 -15 -15 -15 -16 -16 -17 -17 -18 -19 -20 -21 -21 -21 -21 -21 -20 -20 -19 -19 -19 -19 -18 -18 -18 -18 -18 -18 -18 -18 -18 -18 -18 -18 -18 -18
-9 -10 -11 -11 -11 -11 -12 -12 -12 -12 -11 -12 -12 -12 -13 -13 -14 -14 -13 -13 -13 -13 -13 -13 -13 -14 -14 -15 -15 -15 -15 -16 -16 -17 -17 -18 -19 -20 -21 -21 -22 -21 -21 -20 -20 -19 -19 -19 -19 -18 -17 -17 -17 -17 -18 -18 -18 -18 -18 -19 -19 -19 -19
-9 -10 -10 -11 -11 -12 -12 -12 -12 -12 -11 -12 -12 -13 -13 -13 -14 -14 -14 -13 -13 -13 -13 -13 -13 -14 -15 -15 -15 -15 -15 -16 -16 -17 -17 -18 -19 -20 -21 -21 -21 -21 -21 -21 -20 -20 -19 -19 -19 -18 -17 -17 -17 -18 -18 -18 -18 -18 -18 -19 -19 -19 -19
-9 -9 -10 -11 -11 -12 -12 -12 -12 -12 -12 -12 -13 -13 -13 -13 -13 -14 -14 -14 -13 -13 -13 -13 -13 -14 -14 -15 -15 -15 -15 -15 -16 -16 -17 -18 -18 -19 -20 -21 -21 -21 -21 -21 -20 -19 -19 -19 -18 -17 -17 -17 -18 -18 -18 -18 -17 -18 -18 -19 -19 -20 -20
-9 -9 -10 -11 -12 -12 -12 -12 -13 -12 -12 -12 -13 -13 -13 -13 -13 -14 -14 -14 -13 -13 -13 -13 -13 -14 -14 -15 -15 -15 -15 -15 -15 -16 -17 -17 -18 -19 -20 -20 -20 -20 -20 -20 -20 -19 -19 -18 -18 -17 -17 -18 -18 -18 -18 -18 -17 -18 -18 -19 -19 -20 -21
-9 -10 -10 -11 -12 -12 -12 -13 -13 -12 -12 -12 -13 -13 -13 -13 -13 -14 -14 -14 -14 -13 -13 -13 -14 -14 -14 -15 -15 -15 -15 -15 -15 -16 -16 -17 -17 -18 -19 -20 -20 -20 -20 -20 -20 -19 -19 -18 -18 -18 -18 -18 -18 -18 -18 -17 -17 -18 -18 -19 -20 -20 -21
-10 -10 -10 -11 -12 -12 -12 -13 -13 -13 -12 -12 -13 -13 -13 -13 -13 -14 -14 -14 -14 -13 -14 -14 -14 -14 -14 -15 -15 -15 -15 -15 -16 -16 -16 -17 -17 -18 -19 -19 -20 -20 -20 -20 -20 -19 -19 -18 -18 -18 -18 -18 -18 -18 -17 -17 -17 -17 -18 -19 -20 -21 -21
-10 -10 -11 -11 -11 -12 -12 -12 -13 -13 -13 -13 -13 -13 -13 -13 -14 -14 -14 -14 -14 -14 -14 -14 -14 -14 -14 -15 -15 -15 -15 -16 -16 -16 -16 -17 -17 -17 -18 -19 -19 -19 -19 -19 -19 -19 -18 -18 -18 -18 -18 -18 -18 -17 -17 -17 -17 -17 -19 -20 -21 -21 -22
-10 -10 -11 -11 -11 -11 -12 -12 -13 -13 -13 -13 -13 -13 -13 -13 -14 -14 -14 -14 -14 -14 -14 -15 -14 -14 -14 -15 -15 -15 -16 -16 -16 -16 -16 -17 -17 -17 -18 -18 -19 -19 -18 -19 -19 -18 -18 -17 -18 -18 -18 -18 -17 -17 -17 -17 -17 -18 -19 -20 -21 -22 -22
-11 -11 -11 -11 -11 -12 -12 -12 -13 -13 -13 -13 -13 -13 -13 -13 -14 -14 -14 -14 -14 -14 -14 -15 -15 -14 -14 -15 -15 -15 -16 -16 -16 -16 -16 -17 -17 -17 -18 -18 -18 -18 -18 -18 -18 -18 -18 -17 -18 -18 -18 -18 -17 -17 -17 -17 -17 -18 -19 -20 -21 -21 -22
-11 -11 -11 -12 -12 -12 -12 -12 -12 -13 -13 -13 -13 -13 -13 -13 -14 -15 -15 -15 -14 -14 -15 -15 -15 -15 -15 -15 -15 -16 -16 -16 -16 -16 -16 -17 -17 -17 -17 -17 -18 -18 -18 -18 -18 -18 -18 -18 -18 -18 -18 -18 -18 -17 -17 -17 -17 -18 -19 -20 -21 -21 -21
-11 -11 -11 -12 -12 -12 -13 -12 -12 -13 -13 -13 -13 -13 -13 -13 -14 -15 -15 -15 -15 -15 -15 -15 -15 -15 -15 -15 -16 -16 -16 -16 -16 -16 -16 -17 -17 -17 -17 -17 -17 -18 -18 -18 -18 -18 -18 -18 -18 -18 -18 -18 -18 -17 -17 -17 -17 -18 -18 -19 -21 -21 -21
-11 -12 -12 -12 -12 -12 -13 -13 -13 -13 -13 -13 -13 -13 -13 -14 -14 -15 -15 -15 -15 -15 -15 -15 -15 -15 -15 -15 -16 -16 -16 -16 -16 -16 -16 -17 -17 -17 -17 -17 -17 -18 -18 -18 -18 -19 -18 -18 -18 -18 -17 -18 -18 -17 -17 -17 -17 -17 -17 -18 -20 -20 -21
-12 -12 -12 -12 -12 -12 -12 -13 -13 -13 -13 -14 -13 -13 -13 -14 -14 -15 -15 -15 -15 -15 -15 -15 -15 -15 -15 -15 -16 -16 -16 -16 -16 -16 -17 -16 -16 -16 -17 -17 -17 -18 -18 -18 -18 -19 -19 -18 -18 -17 -17 -18 -18 -18 -17 -17 -17 -17 -17 -17 -19 -19 -20
-12 -12 -12 -13 -12 -12 -12 -13 -13 -13 -14 -14 -13 -13 -14 -14 -14 -15 -15 -15 -15 -15 -15 -16 -15 -15 -15 -16 -16 -16 -16 -17 -17 -16 -16 -16 -16 -16 -16 -17 -17 -18 -18 -18 -18 -18 -19 -18 -18 -17 -17 -18 -18 -18 -18 -17 -17 -17 -17 -17 -18 -18 -19
-12 -12 -12 -13 -13 -12 -12 -13 -13 -13 -13 -14 -14 -14 -14 -14 -15 -15 -15 -15 -15 -15 -15 -16 -16 -15 -15 -16 -16 -16 -17 -17 -17 -16 -16 -16 -16 -16 -16 -17 -17 -18 -18 -18 -18 -18 -19 -18 -18 -18 -18 -18 -18 -18 -18 -17 -17 -17 -17 -17 -17 -17 -18
-12 -12 -13 -13 -13 -13 -12 -12 -13 -13 -14 -14 -14 -14 -14 -15 -15 -15 -15 -15 -15 -15 -16 -16 -16 -16 -16 -16 -17 -17 -17 -17 -16 -16 -16 -16 -16 -16 -17 -17 -17 -18 -18 -18 -18 -19 -19 -19 -18 -18 -18 -18 -18 -18 -18 -17 -17 -16 -16 -17 -17 -17 -17
-13 -13 -13 -13 -13 -13 -13 -12 -13 -14 -14 -14 -14 -14 -14 -15 -15 -15 -16 -16 -16 -16 -16 -16 -16 -16 -16 -17 -17 -17 -17 -17 -17 -17 -17 -17 -17 -17 -17 -18 -18 -18 -19 -19 -19 -19 -19 -19 -18 -18 -18 -18 -18 -18 -18 -17 -17 -16 -16 -16 -16 -16 -16
-13 -13 -13 -13 -13 -13 -13 -13 -13 -14 -14 -14 -14 -14 -14 -15 -15 -15 -16 -16 -16 -16 -16 -16 -16 -16 -17 -17 -17 -17 -17 -17 -17 -17 -17 -17 -18 -18 -18 -18 -18 -19 -19 -19 -19 -19 -19 -19 -19 -18 -18 -18 -18 -17 -17 -18 -18 -17 -17 -16 -16 -16 -16
-13 -13 -13 -14 -14 -13 -13 -13 -13 -13 -13 -13 -13 -14 -14 -15 -15 -15 -16 -16 -16 -16 -16 -16 -16 -17 -17 -17 -17 -17 -17 -17 -18 -18 -18 -18 -18 -18 -18 -19 -19 -19 -19 -19 -19 -19 -19 -19 -19 -19 -18 -18 -18 -18 -18 -18 -18 -17 -17 -17 -16 -16 -15
-13 -13 -13 -14 -14 -14 -13 -13 -13 -13 -13 -13 -13 -14 -14 -15 -15 -15 -16 -16 -16 -16 -16 -16 -17 -17 -17 -17 -17 -17 -18 -18 -18 -18 -18 -18 -18 -19 -19 -19 -19 -19 -19 -20 -20 -19 -19 -19 -19 -19 -19 -18 -18 -18 -18 -18 -18 -18 -17 -17 -17 -16 -16
-13 -13 -13 -13 -14 -14 -13 -13 -13 -13 -13 -13 -14 -14 -15 -15 -15 -16 -16 -16 -16 -16 -17 -17 -17 -17 -17 -18 -18 -18 -18 -18 -18 -18 -19 -19 -19 -19 -19 -19 -19 -19 -20 -20 -20 -20 -20 -20 -20 -19 -19 -19 -19 -18 -18 -18 -18 -18 -17 -17 -17 -17 -16
-13 -13 -13 -13 -13 -13 -13 -13 -13 -13 -13 -14 -14 -15 -15 -15 -15 -16 -16 -16 -16 -17 -17 -17 -17 -17 -18 -18 -18 -18 -18 -18 -18 -19 -19 -19 -19 -19 -19 -19 -20 -20 -20 -20 -20 -20 -20 -20 -20 -20 -19 -19 -19 -19 -18 -18 -18 -18 -18 -17 -17 -17 -17
-12 -12 -13 -13 -13 -13 -13 -13 -13 -13 -13 -14 -14 -15 -15 -15 -15 -16 -16 -16 -17 -17 -17 -17 -17 -17 -18 -18 -18 -18 -18 -18 -19 -19 -19 -19 -19 -19 -19 -20 -20 -20 -20 -20 -20 -20 -20 -20 -20 -20 -20 -19 -19 -19 -19 -18 -18 -18 -17 -17 -17 -17 -17
-12 -12 -13 -13 -13 -13 -13 -13 -13 -13 -14 -14 -15 -15 -15 -15 -16 -16 -16 -16 -17 -17 -17 -17 -17 -18 -18 -18 -18 -18 -18 -19 -19 -19 -19 -19 -19 -20 -20 -20 -20 -20 -20 -20 -20 -20 -20 -20 -20 -20 -20 -20 -20 -19 -19 -18 -18 -18 -18 -17 -17 -17 -17
Height
2894 2893 2891 2890 2889 2889 2888 2887 2886 2885 2884 2882 2880 2878 2876 2874 2872 2870 2867 2865 2863 2860 2858 2855 2852 2848 2844 2840 2836 2834 2831 2828 2825 2821 2819 2817 2814 2812 2809 2806 2802 2798 2795 2797 2797 2792 2789 2787 2784 2781 2778 2775 2772 2770 2766 2763 2762 2760 2759 2757 2756 2756 2757
2889 2888 2887 2886 2885 2885 2884 2883 2882 2881 2880 2878 2876 2874 2872 2870 2868 2866 2863 2861 2859 2856 2854 2851 2848 2845 2840 2836 2833 2831 2828 2825 2822 2818 2815 2813 2810 2807 2806 2802 2798 2795 2791 2790 2792 2789 2786 2784 2781 2777 2774 2771 2768 2765 2763 2759 2757 2755 2754 2752 2751 2751 2752
2884 2883 2883 2882 2881 2880 2880 2879 2878 2877 2876 2875 2873 2871 2869 2866 2864 2862 2860 2857 2855 2852 2850 2847 2844 2841 2837 2833 2830 2827 2825 2821 2818 2815 2812 2809 2807 2804 2801 2799 2795 2792 2788 2785 2786 2785 2783 2780 2778 2774 2771 2768 2764 2761 2758 2756 2753 2750 2749 2748 2746 2745 2746
2879 2879 2879 2878 2877 2876 2876 2875 2874 2873 2872 2870 2869 2867 2865 2863 2860 2858 2856 2853 2851 2848 2846 2843 2840 2837 2833 2830 2826 2824 2821 2818 2815 2811 2808 2806 2803 2800 2797 2795 2792 2789 2785 2782 2780 2780 2779 2776 2773 2770 2767 2763 2760 2757 2754 2751 2749 2746 2744 2743 2742 2740 2740
2875 2874 2874 2874 2873 2872 2871 2870 2869 2868 2867 2866 2865 2863 2861 2859 2856 2854 2852 2850 2847 2845 2842 2839 2836 2833 2830 2826 2823 2820 2818 2815 2812 2808 2805 2802 2799 2797 2793 2791 2789 2786 2783 2779 2776 2775 2774 2772 2769 2765 2763 2760 2755 2752 2750 2748 2745 2743 2740 2739 2738 2735 2734
2870 2869 2869 2869 2868 2867 2867 2866 2865 2864 2862 2861 2860 2859 2857 2855 2852 2850 2848 2846 2844 2841 2838 2835 2832 2829 2826 2822 2819 2817 2815 2812 2809 2805 2802 2798 2795 2792 2790 2787 2786 2782 2779 2776 2773 2770 2769 2767 2765 2762 2759 2757 2752 2748 2746 2744 2741 2739 2736 2734 2733 2731 2729
2865 2864 2863 2863 2863 2863 2862 2861 2860 2859 2858 2857 2856 2854 2853 2851 2849 2846 2845 2843 2840 2837 2834 2831 2828 2825 2822 2819 2816 2814 2811 2808 2805 2802 2799 2795 2791 2788 2786 2784 2781 2778 2775 2773 2770 2767 2765 2762 2761 2758 2755 2752 2749 2745 2742 2739 2736 2734 2732 2729 2727 2726 2725
2860 2859 2858 2857 2857 2857 2857 2856 2855 2854 2853 2852 2851 2850 2849 2847 2845 2843 2841 2839 2837 2834 2831 2828 2825 2822 2819 2816 2813 2810 2807 2805 2801 2798 2795 2792 2788 2785 2782 2780 2777 2774 2772 2769 2766 2764 2761 2758 2757 2755 2752 2748 2745 2741 2738 2734 2731 2728 2726 2723 2721 2721 2720
2855 2854 2853 2852 2851 2851 2851 2851 2850 2849 2848 2848 2847 2846 2845 2843 2841 2839 2837 2835 2833 2831 2828 2825 2822 2819 2816 2813 2810 2807 2805 2802 2798 2795 2791 2788 2784 2781 2778 2776 2773 2770 2768 2765 2762 2760 2758 2755 2754 2752 2748 2745 2741 2736 2732 2729 2725 2722 2719 2717 2715 2715 2714
2849 2849 2849 2849 2847 2846 2845 2845 2845 2845 2844 2843 2842 2842 2841 2839 2837 2835 2833 2831 2829 2827 2825 2823 2819 2816 2814 2811 2808 2805 2802 2799 2795 2791 2788 2784 2780 2776 2773 2771 2769 2767 2764 2762 2759 2757 2755 2752 2750 2749 2745 2741 2737 2733 2728 2725 2720 2716 2713 2710 2708 2708 2708
2844 2844 2844 2844 2843 2842 2841 2840 2840 2839 2839 2838 2838 2837 2836 2835 2833 2832 2829 2827 2826 2824 2822 2820 2817 2814 2811 2808 2806 2803 2800 2796 2793 2789 2785 2781 2777 2774 2771 2768 2765 2762 2761 2759 2756 2755 2753 2749 2746 2745 2742 2738 2734 2729 2725 2720 2716 2711 2707 2704 2702 2701 2702
2838 2839 2839 2839 2838 2838 2837 2836 2835 2834 2834 2833 2833 2832 2832 2831 2830 2828 2826 2824 2822 2821 2819 2817 2815 2812 2809 2806 2803 2800 2797 2794 2790 2786 2782 2778 2775 2772 2769 2766 2763 2759 2757 2756 2753 2752 2751 2747 2743 2741 2740 2736 2730 2725 2720 2716 2711 2706 2702 2698 2696 2695 2696
2833 2833 2834 2834 2834 2833 2832 2831 2830 2829 2829 2828 2828 2827 2827 2827 2826 2824 2822 2820 2818 2817 2816 2814 2812 2809 2806 2804 2801 2798 2794 2791 2788 2784 2780 2776 2772 2770 2767 2765 2762 2759 2756 2753 2750 2748 2747 2745 2741 2738 2736 2732 2726 2720 2715 2710 2706 2701 2696 2693 2690 2689 2689
2827 2828 2828 2829 2829 2829 2828 2827 2826 2825 2824 2823 2823 2822 2822 2822 2822 2820 2818 2817 2815 2813 2812 2810 2808 2806 2804 2801 2798 2795 2792 2788 2785 2781 2778 2774 2770 2767 2765 2763 2761 2759 2756 2753 2749 2746 2744 2742 2739 2734 2731 2727 2721 2715 2710 2704 2699 2696 2692 2688 2685 2684 2684
2821 2822 2823 2823 2824 2824 2823 2823 2823 2821 2819 2819 2819 2818 2818 2818 2817 2816 2814 2813 2811 2810 2808 2807 2805 2803 2801 2799 2796 2792 2789 2785 2782 2779 2775 2772 2768 2765 2763 2760 2758 2756 2753 2751 2748 2745 2742 2739 2735 2731 2727 2723 2717 2711 2705 2699 2694 2690 2687 2683 2681 2680 2679
2816 2816 2817 2818 2819 2819 2819 2819 2819 2817 2816 2815 2815 2814 2814 2814 2813 2812 2811 2809 2808 2807 2805 2803 2801 2799 2797 2796 2793 2790 2786 2783 2779 2776 2772 2769 2766 2763 2760 2758 2755 2753 2750 2748 2745 2743 2739 2736 2732 2728 2724 2720 2715 2709 2702 2695 2690 2686 2682 2678 2676 2675 2674
2812 2812 2812 2813 2813 2814 2815 2815 2815 2813 2812 2811 2811 2811 2810 2810 2809 2808 2807 2806 2805 2803 2801 2799 2797 2796 2794 2793 2790 2787 2784 2780 2777 2773 2769 2766 2763 2760 2757 2755 2753 2751 2748 2745 2743 2740 2737 2734 2730 2726 2723 2718 2713 2706 2699 2692 2686 2682 2677 2674 2672 2671 2670
2808 2808 2808 2808 2809 2809 2810 2811 2811 2810 2809 2808 2807 2807 2807 2806 2806 2805 2804 2803 2801 2800 2798 2796 2794 2792 2791 2790 2788 2785 2781 2778 2774 2771 2767 2763 2760 2757 2754 2752 2751 2750 2748 2745 2741 2738 2735 2731 2728 2724 2721 2716 2710 2703 2695 2688 2683 2679 2674 2670 2669 2667 2667
2805 2804 2804 2804 2804 2804 2805 2806 2806 2806 2805 2805 2804 2803 2803 2803 2802 2802 2801 2799 2798 2797 2795 2793 2791 2789 2788 2786 2785 2782 2779 2775 2772 2768 2765 2761 2758 2754 2751 2749 2748 2747 2746 2744 2741 2737 2734 2730 2727 2723 2719 2713 2707 2700 2693 2686 2681 2677 2671 2668 2666 2665 2665
2801 2800 2800 2800 2800 2800 2800 2802 2802 2801 2801 2801 2800 2799 2799 2799 2799 2798 2797 2796 2795 2794 2792 2790 2789 2787 2785 2783 2781 2779 2776 2773 2769 2766 2763 2759 2755 2752 2749 2747 2746 2744 2742 2740 2738 2734 2731 2728 2725 2721 2716 2711 2706 2698 2691 2685 2681 2676 2670 2666 2665 2664 2664
2798 2797 2795 2795 2795 2796 2796 2797 2798 2797 2797 2797 2796 2795 2795 2796 2796 2795 2794 2793 2792 2791 2789 2788 2786 2784 2782 2780 2778 2776 2774 2771 2767 2764 2760 2757 2753 2750 2746 2744 2743 2741 2739 2736 2734 2731 2728 2726 2724 2720 2715 2711 2705 2697 2690 2685 2681 2676 2670 2666 2664 2663 2664
2794 2793 2792 2791 2790 2791 2792 2793 2793 2793 2793 2792 2792 2791 2791 2792 2792 2792 2791 2790 2789 2788 2787 2785 2784 2782 2780 2778 2776 2774 2771 2769 2765 2762 2759 2755 2752 2748 2745 2742 2741 2739 2737 2734 2732 2729 2726 2725 2723 2719 2715 2710 2705 2698 2691 2686 2682 2677 2672 2667 2665 2665 2665
2790 2789 2788 2787 2786 2786 2787 2787 2788 2789 2788 2788 2788 2788 2788 2788 2788 2788 2788 2787 2786 2785 2784 2782 2781 2779 2778 2776 2774 2772 2769 2767 2764 2760 2757 2754 2751 2747 2744 2741 2739 2737 2735 2733 2730 2728 2725 2724 2722 2718 2714 2710 2705 2699 2692 2687 2683 2680 2675 2670 2668 2667 2667
2786 2785 2784 2783 2782 2781 2781 2782 2783 2784 2784 2784 2784 2784 2784 2784 2785 2785 2785 2784 2783 2782 2781 2780 2779 2777 2775 2773 2771 2769 2767 2765 2762 2759 2757 2753 2750 2747 2743 2740 2737 2735 2734 2732 2729 2727 2725 2723 2720 2717 2713 2709 2704 2699 2694 2689 2685 2682 2679 2675 2672 2671 2670
2781 2780 2779 2778 2777 2777 2776 2777 2778 2779 2779 2780 2780 2780 2780 2780 2781 2781 2781 2781 2780 2780 2779 2777 2776 2775 2773 2771 2769 2768 2766 2763 2761 2759 2756 2753 2749 2745 2742 2738 2736 2735 2733 2731 2729 2726 2724 2721 2719 2716 2712 2708 2704 2700 2696 2692 2687 2684 2682 2680 2677 2675 2674
2776 2775 2774 2774 2773 2772 2771 2771 2772 2774 2775 2775 2776 2776 2776 2777 2777 2778 2778 2778 2777 2777 2776 2775 2774 2773 2771 2769 2768 2766 2764 2762 2761 2758 2755 2752 2748 2744 2740 2738 2736 2734 2732 2730 2728 2726 2723 2720 2718 2715 2712 2708 2704 2701 2698 2695 2690 2687 2685 2683 2682 2680 2679
2772 2771 2770 2769 2769 2768 2766 2766 2767 2769 2770 2771 2772 2773 2773 2773 2774 2774 2774 2774 2775 2774 2774 2773 2772 2770 2769 2767 2766 2765 2763 2762 2760 2757 2754 2751 2747 2742 2739 2737 2736 2734 2732 2730 2727 2725 2722 2720 2717 2715 2712 2709 2705 2702 2699 2696 2693 2690 2687 2686 2685 2684 2684
2767 2766 2765 2765 2765 2764 2763 2762 2763 2764 2766 2767 2768 2768 2768 2769 2770 2771 2771 2771 2772 2772 2771 2771 2770 2768 2767 2766 2765 2763 2763 2762 2759 2756 2753 2750 2746 2741 2739 2737 2735 2733 2731 2729 2727 2724 2722 2720 2718 2715 2713 2710 2707 2704 2700 2697 2694 2692 2690 2689 2688 2687 2687
2763 2762 2761 2760 2760 2760 2759 2758 2759 2760 2762 2762 2763 2763 2764 2765 2767 2768 2768 2769 2769 2769 2769 2769 2768 2766 2765 2764 2763 2762 2762 2761 2758 2754 2752 2749 2745 2741 2738 2737 2735 2733 2732 2730 2727 2725 2723 2721 2718 2716 2714 2711 2709 2706 2703 2699 2696 2693 2691 2690 2690 2689 2689
2759 2758 2757 2756 2756 2755 2754 2755 2755 2756 2756 2757 2758 2759 2760 2761 2763 2764 2765 2766 2766 2767 2767 2766 2766 2764 2763 2763 2762 2761 2760 2759 2756 2753 2751 2749 2745 2741 2739 2737 2736 2735 2733 2731 2728 2726 2724 2721 2719 2717 2715 2712 2710 2708 2706 2703 2700 2697 2694 2693 2692 2691 2691
2755 2755 2754 2753 2752 2751 2750 2750 2751 2751 2752 2753 2754 2755 2757 2758 2760 2761 2762 2763 2764 2764 2764 2764 2764 2763 2762 2761 2760 2760 2759 2758 2755 2752 2751 2749 2746 2742 2740 2739 2737 2736 2734 2732 2729 2727 2724 2722 2720 2718 2715 2713 2711 2709 2707 2705 2703 2701 2699 2697 2695 2694 2693
2751 2751 2750 2749 2748 2747 2747 2747 2747 2748 2749 2750 2751 2752 2754 2755 2757 2759 2760 2761 2762 2762 2762 2762 2762 2761 2760 2760 2759 2759 2758 2757 2754 2752 2751 2749 2747 2743 2741 2740 2738 2737 2735 2733 2730 2728 2725 2723 2721 2719 2716 2714 2712 2710 2709 2707 2706 2704 2702 2700 2699 2697 2695
2747 2747 2746 2746 2745 2744 2743 2743 2743 2744 2745 2747 2748 2750 2750 2752 2754 2756 2757 2758 2759 2760 2760 2760 2760 2759 2759 2758 2758 2758 2757 2756 2754 2752 2750 2749 2747 2744 2742 2741 2739 2737 2736 2734 2732 2729 2727 2724 2722 2720 2718 2716 2714 2712 2710 2709 2707 2706 2704 2703 2702 2700 2699
2743 2743 2742 2742 2741 2741 2740 2740 2740 2741 2742 2743 2745 2747 2747 2749 2752 2753 2754 2756 2757 2758 2758 2759 2758 2758 2757 2757 2757 2757 2756 2755 2754 2752 2750 2749 2748 2745 2742 2741 2739 2738 2737 2735 2733 2731 2728 2726 2723 2721 2719 2717 2715 2713 2712 2710 2709 2708 2706 2705 2704 2702 2701
2739 2739 2739 2738 2737 2737 2737 2737 2737 2738 2739 2740 2742 2743 2745 2747 2750 2751 2752 2754 2755 2755 2756 2757 2756 2756 2756 2756 2756 2756 2756 2755 2753 2752 2750 2749 2748 2745 2743 2741 2740 2739 2737 2735 2733 2731 2729 2727 2724 2722 2720 2718 2716 2715 2713 2711 2710 2709 2708 2707 2705 2704 2703
2735 2735 2735 2734 2734 2734 2734 2734 2734 2734 2735 2737 2738 2740 2743 2746 2748 2749 2750 2752 2753 2754 2754 2755 2755 2755 2755 2755 2755 2755 2755 2754 2753 2751 2750 2749 2747 2745 2743 2742 2741 2739 2738 2736 2734 2732 2730 2728 2725 2723 2721 2719 2717 2716 2714 2712 2711 2710 2709 2708 2707 2706 2705
Wind_Speed
29 29 27 25 25 25 25 25 24 24 24 24 24 24 25 27 28 29 30 31 32 33 34 35 35 35 34 34 34 32 32 32 32 33 33 33 34 34 33 34 36 40 37 28 26 29 30 32 34 33 33 34 34 32 34 35 32 29 29 31 32 33 33
29 30 28 26 25 25 26 26 25 25 25 24 24 23 24 26 27 28 29 30 31 32 34 34 34 34 34 34 33 32 32 32 32 32 33 32 34 34 33 34 36 38 39 33 27 28 30 32 34 35 34 35 36 34 34 35 34 30 27 30 32 34 35
29 30 30 27 26 26 26 26 26 26 26 25 24 23 24 26 27 28 29 29 30 31 33 34 34 34 34 34 33 32 32 33 32 32 33 32 33 34 33 33 34 36 38 37 31 29 31 32 33 35 35 36 37 36 35 35 34 31 26 28 32 34 35
28 29 30 29 26 26 27 27 26 26 27 26 25 24 24 25 26 27 28 29 30 31 32 33 33 34 34 34 34 33 32 32 32 32 32 32 32 33 33 33 33 34 36 37 35 32 32 33 34 35 36 38 39 37 36 36 35 32 27 25 30 34 35
28 28 30 29 27 27 27 27 26 27 27 26 25 24 25 26 26 27 28 29 29 30 31 32 33 34 34 35 34 33 32 32 32 32 32 32 32 32 33 33 33 34 35 36 37 35 33 33 35 36 36 38 40 38 36 37 37 35 30 26 27 33 35
30 27 28 29 28 28 28 27 26 26 26 27 26 25 25 26 26 26 27 28 29 29 30 31 32 33 34 35 34 33 33 32 31 32 31 31 31 32 33 33 32 33 34 34 35 35 34 34 35 37 37 38 40 40 38 37 37 37 33 29 27 30 34
32 29 27 28 28 28 28 27 27 27 26 27 27 26 26 26 26 26 27 28 28 29 30 30 31 33 33 34 34 34 34 33 32 32 31 30 30 31 32 33 32 32 33 34 34 34 35 36 36 37 38 39 39 39 39 39 39 38 34 31 29 28 31
34 33 29 27 27 27 28 28 27 27 26 27 28 27 27 26 26 25 26 27 28 28 29 30 30 31 32 33 34 34 34 33 32 32 31 30 29 30 31 31 31 32 33 33 33 33 35 37 37 38 39 39 40 40 39 40 41 40 37 32 30 28 29
35 36 33 28 26 26 27 27 27 27 27 28 29 28 28 27 26 25 25 25 26 27 28 29 30 30 31 33 34 34 33 32 32 33 32 31 30 30 31 30 31 32 33 33 34 35 36 38 38 38 39 40 41 41 42 43 44 42 39 34 31 29 28
35 36 35 32 28 26 26 26 26 26 27 29 30 30 29 28 26 25 24 24 25 26 27 28 29 29 31 32 32 33 32 32 32 32 33 32 31 30 31 30 31 32 32 34 35 36 38 39 39 38 39 40 41 41 43 44 46 44 41 37 33 29 27
35 34 34 33 31 28 27 26 25 26 28 29 30 30 30 29 27 24 24 23 23 24 26 27 28 29 30 31 31 31 31 31 31 32 32 31 29 28 29 30 32 33 33 34 36 37 37 39 39 38 38 39 39 41 43 44 45 44 42 38 33 30 27
35 33 33 33 32 30 28 27 25 25 27 29 30 30 30 29 27 24 23 23 23 24 24 26 27 28 29 31 31 31 30 30 30 30 31 30 27 26 26 28 30 33 35 35 36 37 36 38 40 39 37 38 39 41 43 44 44 43 42 39 33 30 28
36 33 33 32 32 32 30 27 25 25 27 29 29 29 29 28 25 23 23 22 22 23 24 25 26 27 29 31 31 30 30 30 29 30 30 29 26 24 23 25 28 31 34 35 36 38 37 37 39 40 37 37 39 42 44 44 44 42 40 37 31 28 28
37 33 32 32 32 33 32 28 26 26 27 28 28 28 28 27 24 22 21 22 22 22 23 24 25 26 28 30 31 30 29 29 29 29 29 27 25 22 21 22 25 27 29 32 34 36 36 36 38 39 37 37 41 44 46 46 45 42 38 33 28 26 26
36 33 31 31 32 33 33 30 27 27 26 25 26 27 27 27 25 22 21 21 21 22 22 23 24 25 27 29 30 30 29 29 29 28 28 27 23 20 19 21 24 26 27 29 32 33 35 35 36 37 37 38 42 46 47 48 47 42 34 28 24 23 23
32 32 30 30 31 33 33 31 28 27 25 23 24 25 25 25 24 22 20 20 21 21 22 22 23 25 27 28 29 29 29 29 29 28 28 27 24 19 18 18 22 25 27 29 31 31 32 33 34 35 37 39 43 45 45 47 46 39 31 26 22 20 19
30 29 29 29 30 32 33 31 28 27 24 22 23 23 24 24 24 22 20 20 20 21 21 21 22 24 25 27 28 28 28 29 29 29 28 28 26 21 18 17 19 22 25 28 30 29 29 30 32 34 37 39 42 43 44 46 42 34 29 25 20 17 15
29 28 28 29 29 31 32 30 28 26 24 21 22 23 23 23 23 21 20 20 20 21 21 20 22 23 24 26 27 27 27 28 28 28 28 28 27 23 20 18 19 20 22 25 27 27 27 28 31 33 36 38 40 42 43 41 34 29 27 23 17 13 12
28 26 27 28 29 30 31 30 28 26 23 21 22 22 22 22 22 21 20 20 20 20 20 20 21 22 24 25 25 26 26 27 27 28 27 28 28 26 22 20 20 21 21 21 22 23 24 26 29 32 35 38 39 41 40 33 27 28 27 19 12 10 10
28 26 25 27 28 30 30 29 27 25 23 22 22 22 21 21 20 20 20 20 19 19 19 19 20 22 23 23 24 24 25 26 26 27 27 28 29 27 24 21 21 22 23 22 21 22 22 24 28 32 35 36 38 39 35 27 25 30 27 14 8 8 8
28 26 25 25 27 29 29 29 28 26 24 23 22 22 21 20 19 20 20 19 19 19 19 19 19 21 21 22 22 23 24 25 25 26 27 27 28 27 26 23 22 22 24 24 23 22 22 24 27 31 33 34 36 37 32 24 23 30 28 15 5 7 11
30 28 26 25 25 26 28 28 28 27 25 23 22 22 22 20 19 20 20 19 19 18 17 18 19 20 20 20 21 22 23 24 24 25 26 26 27 26 26 24 23 22 23 23 23 22 22 23 26 29 30 32 33 35 32 23 21 27 29 18 3 8 14
30 30 29 27 25 25 25 27 27 27 25 24 22 22 22 20 19 19 19 19 18 17 16 17 18 19 19 19 19 20 22 23 24 24 24 25 25 25 25 24 22 22 22 22 22 22 21 22 25 27 29 30 31 33 31 24 19 22 27 21 6 8 15
28 31 30 29 27 25 24 24 26 26 25 25 23 22 22 21 19 18 18 18 18 16 15 16 17 18 18 18 18 19 21 22 23 23 22 23 23 23 23 24 22 20 20 21 21 21 21 22 24 26 27 30 31 31 31 26 19 17 21 20 9 5 13
28 30 30 29 28 26 23 23 24 25 26 25 24 23 22 21 19 18 17 17 17 16 15 15 16 16 16 16 17 18 20 21 21 21 21 21 21 21 23 23 22 20 19 19 19 20 20 22 24 26 28 30 31 31 30 29 23 16 14 14 10 4 8
29 30 31 30 28 26 24 22 23 25 25 25 24 23 23 22 19 17 17 17 16 15 14 14 15 15 14 15 16 17 19 19 19 19 19 20 20 21 23 23 22 20 18 18 18 19 20 22 23 26 28 30 31 30 28 29 26 18 10 9 9 8 7
30 32 32 31 27 25 24 22 22 23 24 25 25 24 23 22 19 17 17 17 15 14 13 13 14 13 13 14 15 16 17 17 17 18 19 19 20 22 23 23 21 19 17 17 18 19 20 22 23 25 27 28 30 30 28 28 28 23 13 6 5 6 8
33 32 31 30 27 25 25 23 21 22 23 24 25 25 25 23 19 16 16 16 14 13 12 13 13 11 11 12 13 15 15 15 16 17 18 19 21 22 23 23 22 21 19 18 19 19 20 21 21 23 24 25 27 28 28 27 27 27 22 13 5 2 4
31 28 29 30 28 25 24 22 20 21 23 26 27 27 26 23 19 16 16 15 14 12 12 13 12 10 10 11 12 13 14 15 16 17 18 19 20 22 23 23 22 20 19 18 18 18 18 19 20 21 22 23 24 25 26 26 25 26 27 23 15 7 4
28 26 30 34 31 26 22 20 20 22 25 27 29 28 26 23 19 16 15 15 13 11 11 12 10 8 8 10 11 13 14 15 16 17 17 18 19 21 22 21 20 19 18 17 17 17 17 18 18 19 20 21 22 22 23 24 23 22 23 24 21 16 11
27 27 31 34 30 24 21 19 20 22 24 26 28 26 24 22 19 16 15 14 12 11 11 11 9 7 7 8 10 12 13 14 14 15 16 16 17 19 20 20 20 19 19 19 18 18 17 17 17 17 18 19 21 22 22 22 21 19 18 18 19 18 17
28 28 30 30 27 22 20 18 18 20 23 25 26 25 24 22 19 16 15 14 12 11 11 10 8 6 6 7 9 11 12 12 12 13 14 14 15 16 17 18 19 19 20 20 20 19 19 19 18 18 18 18 19 20 20 20 19 17 16 15 16 16 16
25 26 27 27 25 21 18 17 17 19 22 24 25 25 25 22 18 16 15 13 12 11 11 10 8 6 5 6 8 10 11 11 11 12 12 13 13 14 15 16 18 19 19 20 20 20 21 21 21 20 19 18 18 18 18 18 17 16 15 13 12 13 14
24 23 25 26 24 20 17 15 16 18 21 23 24 26 26 22 18 16 15 13 12 12 12 10 8 6 5 6 8 9 10 10 10 10 11 11 12 13 15 16 17 18 18 19 19 20 20 21 21 21 20 19 18 18 16 16 15 15 14 12 11 10 11
23 22 22 23 20 16 14 14 15 18 21 23 26 28 26 22 18 16 14 13 13 13 12 10 8 6 5 5 7 8 9 9 9 9 10 11 11 13 14 15 16 16 17 18 19 19 20 20 21 21 20 20 19 17 16 15 14 13 13 12 11 10 9
19 20 21 19 16 13 13 14 15 18 20 23 27 28 24 20 17 16 15 14 14 13 12 10 8 6 5 5 6 7 8 8 8 8 9 10 11 12 13 14 14 15 16 17 18 19 19 20 21 21 20 21 20 19 18 16 15 14 13 12 11 10 9
Wind_Direction
278 274 276 277 281 285 285 287 289 292 296 298 299 299 299 302 304 307 310 312 315 317 319 321 322 323 323 324 326 327 323 318 310 305 300 297 297 298 300 300 299 299 299 302 310 316 321 321 320 324 326 324 322 320 321 322 320 309 290 277 269 263 262
279 276 276 277 281 284 284 286 288 291 294 295 297 298 298 301 303 306 309 311 314 316 318 321 322 322 323 323 326 326 323 318 312 308 303 299 297 298 300 301 300 300 299 299 305 310 314 316 318 322 324 323 323 321 323 324 323 315 295 280 272 264 259
280 278 277 277 281 283 283 285 286 289 293 294 296 297 297 300 302 305 308 310 313 316 318 320 321 322 322 323 325 326 323 319 314 311 307 301 297 297 299 301 300 302 301 299 301 305 308 311 315 321 322 322 323 322 324 326 324 316 299 282 275 268 260
281 280 279 278 282 284 283 284 285 288 291 293 296 297 297 299 301 304 308 310 313 315 317 319 321 323 323 323 326 326 323 319 316 314 310 303 297 295 297 301 302 303 303 300 299 301 305 309 314 320 322 321 322 323 325 327 325 317 304 289 279 272 266
278 279 279 279 281 283 282 283 283 286 290 292 294 296 296 298 300 304 308 309 312 314 316 320 321 322 322 323 326 325 322 319 317 315 313 306 299 294 296 300 302 304 304 302 299 297 302 309 315 319 319 319 321 322 324 326 325 319 308 298 287 276 270
275 277 278 279 280 282 283 284 283 284 287 288 290 293 294 296 298 303 307 309 311 314 316 320 321 322 323 323 325 324 321 320 320 318 316 310 301 295 295 299 301 304 306 304 301 300 304 310 315 317 317 318 319 320 322 323 323 320 311 302 296 283 272
273 274 274 276 279 282 282 283 282 282 284 285 287 289 290 293 297 301 306 308 311 314 316 319 321 321 323 322 322 322 322 322 322 320 319 314 305 296 294 296 301 306 308 307 304 305 308 311 316 318 316 316 318 317 319 321 320 321 316 303 298 291 275
272 272 271 270 275 279 280 280 280 281 283 283 284 285 287 290 295 300 304 307 310 314 316 318 320 321 321 321 322 323 323 324 324 323 322 316 307 298 295 299 305 309 310 311 310 310 312 313 316 317 314 314 316 316 318 321 320 321 320 307 297 295 283
270 272 273 271 270 273 276 277 279 281 282 282 282 284 285 288 293 299 304 307 311 314 316 317 319 320 320 321 322 323 323 324 325 324 324 320 312 304 302 305 309 310 313 315 315 315 315 314 315 315 313 313 317 319 321 322 320 320 321 311 296 294 289
268 270 274 275 272 271 273 274 277 280 280 281 283 284 285 287 292 299 303 307 311 313 315 317 318 320 320 320 321 322 323 326 327 326 326 323 317 310 307 308 310 312 316 317 316 316 315 313 313 313 313 314 317 320 321 321 318 318 319 313 298 291 290
267 267 272 275 275 274 274 274 276 278 279 281 284 285 285 287 291 298 303 307 311 313 315 317 318 319 319 319 320 322 324 327 328 328 327 324 317 309 306 308 312 314 316 316 315 314 314 312 311 312 314 315 317 320 321 319 317 316 318 314 301 290 290
266 264 267 272 275 274 274 274 275 277 279 282 284 285 285 285 288 296 302 305 310 313 314 316 318 318 318 318 319 322 326 329 329 329 328 325 318 307 301 306 311 313 314 314 313 312 312 312 311 311 313 316 319 322 322 319 318 318 318 315 303 291 290
265 262 264 270 275 276 275 274 275 276 278 280 282 284 285 283 285 293 299 303 308 311 314 316 317 318 318 317 319 323 327 330 331 331 329 326 318 307 299 302 305 308 311 313 313 311 312 312 309 308 312 319 323 324 323 322 322 321 318 314 305 293 289
266 259 261 266 272 276 276 275 275 274 274 278 281 284 285 283 283 289 295 301 305 309 312 315 317 318 317 317 318 323 328 331 333 332 329 326 319 306 297 296 299 305 309 309 309 308 308 309 309 310 316 324 327 326 325 324 323 321 318 313 303 293 289
272 259 258 261 267 274 276 275 274 273 274 279 282 284 285 284 284 286 292 299 303 307 311 313 316 318 317 317 318 323 329 332 334 333 330 329 323 307 295 296 302 309 310 306 306 307 308 310 312 316 323 329 329 328 325 323 322 321 317 309 299 292 287
281 263 257 259 263 269 274 275 274 274 278 283 285 286 285 284 283 285 290 297 301 305 309 311 315 317 317 317 318 323 330 332 334 335 333 333 328 313 300 302 309 312 311 308 309 312 312 313 317 324 330 332 329 328 325 322 321 320 313 304 298 293 282
290 271 259 257 261 265 270 273 274 276 280 285 287 287 286 284 283 283 288 294 298 302 306 309 314 316 316 316 318 324 330 332 335 336 335 334 332 320 308 309 313 313 311 310 312 314 314 317 323 330 333 332 330 329 326 323 323 320 312 303 298 291 275
294 281 268 262 262 264 268 271 273 276 281 286 287 288 286 283 282 281 284 289 294 299 303 307 311 314 315 316 318 325 331 333 335 337 335 334 334 328 319 316 315 312 310 309 311 314 319 324 329 333 334 334 334 334 330 327 328 324 315 304 295 284 262
293 289 281 273 268 268 270 272 272 276 281 284 284 285 285 283 280 279 280 285 291 295 300 305 309 312 315 316 320 326 331 333 336 337 336 334 335 333 327 320 316 313 312 311 311 316 324 331 333 336 337 338 339 339 335 334 337 334 324 307 287 270 244
292 288 283 278 275 275 276 275 274 275 279 281 281 283 284 282 279 276 276 281 287 292 297 303 307 311 314 317 322 328 331 334 337 338 337 335 335 334 331 323 317 316 318 320 321 325 332 336 337 339 340 341 344 345 342 340 345 346 339 321 281 249 213
294 289 283 277 275 276 278 278 276 275 275 277 278 280 282 281 278 274 274 278 284 290 296 301 305 310 314 318 324 328 331 335 338 339 338 336 334 334 332 327 321 321 323 326 329 334 340 341 341 342 342 344 348 352 349 344 346 352 352 345 291 210 177
297 294 288 281 275 272 274 275 275 274 274 274 274 276 279 279 275 271 271 275 281 288 294 299 303 308 313 319 325 329 332 337 340 341 339 336 334 334 334 330 326 325 327 328 332 339 344 344 343 344 344 346 353 359 358 349 344 352 357 359 344 179 167
297 296 293 289 282 274 270 270 271 272 271 270 270 272 275 275 273 270 270 273 279 286 293 298 301 306 313 320 326 330 334 339 342 342 339 336 334 334 335 334 331 328 329 331 335 341 346 346 344 344 345 349 358 6 6 358 347 351 0 4 11 163 169
297 296 296 295 291 283 273 266 266 267 266 266 266 267 270 272 270 268 267 271 277 284 290 294 298 304 313 322 328 332 337 341 344 343 340 337 337 337 339 341 338 332 331 333 337 342 345 346 344 344 347 352 1 9 13 10 3 3 10 11 15 147 176
300 296 294 295 296 292 281 267 260 260 260 261 262 262 265 267 268 266 265 268 275 283 288 292 297 304 315 325 330 335 340 343 344 342 341 342 343 345 347 348 344 337 334 336 339 342 345 348 346 345 349 355 1 8 14 16 16 23 32 29 31 99 169
304 299 295 294 296 295 286 270 257 254 255 256 258 259 261 263 264 264 264 266 272 280 286 291 295 304 317 326 331 337 343 343 342 342 345 348 351 354 356 354 349 343 338 336 340 343 346 349 350 348 351 356 360 4 11 17 22 31 49 54 54 79 119
303 302 299 296 295 293 287 273 256 249 249 251 253 255 258 260 260 260 262 265 270 277 283 286 292 304 320 327 332 340 343 340 341 346 350 353 358 3 3 359 354 348 342 338 341 346 349 351 352 352 353 356 358 1 6 13 21 30 43 62 69 82 105
304 304 301 297 293 289 287 279 262 249 245 246 249 251 253 255 255 255 259 263 267 274 279 282 290 306 320 326 333 341 339 336 345 354 356 358 4 8 7 4 359 355 349 344 345 348 349 351 352 353 354 356 359 2 5 8 14 23 33 44 61 104 124
306 306 303 301 295 287 286 283 266 247 238 238 243 245 247 250 251 250 253 257 261 268 273 277 288 305 318 326 335 337 333 338 352 2 1 2 9 14 13 10 6 360 355 351 348 348 348 349 352 354 354 356 359 3 7 10 12 15 22 30 42 66 125
306 300 298 302 300 288 283 279 262 246 241 240 240 241 243 246 247 246 247 250 255 260 266 272 284 302 315 325 333 333 332 342 358 6 5 5 13 19 19 16 12 7 3 360 356 353 352 352 354 356 356 357 360 3 8 12 15 15 16 20 29 45 66
297 290 293 302 304 291 281 276 263 254 251 248 244 240 240 243 244 243 243 245 248 254 260 267 278 295 310 322 330 331 334 346 1 9 8 6 13 22 23 20 17 15 13 11 8 5 4 2 0 1 1 1 3 5 8 12 14 16 19 19 22 32 45
288 288 293 303 306 295 282 274 264 256 254 252 246 239 237 239 240 239 240 240 242 248 254 260 269 284 302 318 327 330 334 346 1 11 11 8 14 23 25 21 19 19 19 17 15 15 15 13 11 10 10 9 9 8 10 11 12 14 19 23 24 28 35
283 288 294 300 303 298 285 270 259 252 250 249 244 236 234 236 236 235 236 236 236 242 248 252 260 273 292 313 323 327 332 342 359 11 13 10 14 22 25 21 19 19 20 18 17 18 19 18 17 16 16 16 16 14 12 11 11 14 19 22 27 31 36
278 279 288 295 297 295 285 269 255 249 246 243 237 233 233 234 233 232 233 231 231 236 241 244 249 261 282 305 317 321 326 337 354 10 14 11 12 20 24 22 18 16 15 15 16 17 19 20 20 19 18 20 20 20 18 15 13 14 17 22 28 33 38
269 271 284 294 292 287 280 268 254 246 243 238 232 231 232 231 230 229 228 226 227 231 234 236 240 249 267 292 306 314 320 330 347 6 14 12 13 20 25 22 16 13 12 12 13 14 16 19 19 18 20 21 21 20 22 22 21 18 16 19 27 35 42
269 274 284 292 291 283 274 264 254 246 241 234 230 230 230 228 225 225 224 222 224 227 229 230 233 238 251 275 293 304 314 325 340 1 14 15 14 21 26 21 16 13 12 12 12 13 14 18 18 17 19 21 21 20 21 22 25 25 21 19 22 26 35